Year,Month,Day,Hour,Minute,Value (Times are PST for temperature in C)
2013,07,01,00,00,19.40
2013,07,01,00,01,19.40
2013,07,01,00,02,19.30
2013,07,01,00,03,19.30
2013,07,01,00,04,19.30
2013,07,01,00,05,19.30
2013,07,01,00,06,19.30
2013,07,01,00,07,19.30
2013,07,01,00,08,19.30
2013,07,01,00,09,19.30
2013,07,01,00,10,19.30
2013,07,01,00,11,19.30
2013,07,01,00,12,19.20
2013,07,01,00,13,19.20
2013,07,01,00,14,19.20
2013,07,01,00,15,19.20
2013,07,01,00,16,19.20
2013,07,01,00,17,19.10
2013,07,01,00,18,19.10
2013,07,01,00,19,19.10
2013,07,01,00,20,19.10
2013,07,01,00,21,19.10
2013,07,01,00,22,19.10
2013,07,01,00,23,19.00
2013,07,01,00,24,19.00
2013,07,01,00,25,19.00
2013,07,01,00,26,18.90
2013,07,01,00,27,18.90
2013,07,01,00,28,18.90
2013,07,01,00,29,18.90
2013,07,01,00,30,18.90
2013,07,01,00,31,18.90
2013,07,01,00,32,18.90
2013,07,01,00,33,18.90
2013,07,01,00,34,18.90
2013,07,01,00,35,18.90
2013,07,01,00,36,18.90
2013,07,01,00,37,18.80
2013,07,01,00,38,18.80
2013,07,01,00,39,18.80
2013,07,01,00,40,18.80
2013,07,01,00,41,18.80
2013,07,01,00,42,18.80
2013,07,01,00,43,18.80
2013,07,01,00,44,18.80
2013,07,01,00,45,18.80
2013,07,01,00,46,18.80
2013,07,01,00,47,18.70
2013,07,01,00,48,18.70
2013,07,01,00,49,18.70
2013,07,01,00,50,18.70
2013,07,01,00,51,18.70
2013,07,01,00,52,18.70
2013,07,01,00,53,18.70
2013,07,01,00,54,18.70
2013,07,01,00,55,18.70
2013,07,01,00,56,18.60
2013,07,01,00,57,18.70
2013,07,01,00,58,18.60
2013,07,01,00,59,18.60
2013,07,01,01,00,18.60
2013,07,01,01,01,18.60
2013,07,01,01,02,18.60
2013,07,01,01,03,18.60
2013,07,01,01,04,18.60
2013,07,01,01,05,18.60
2013,07,01,01,06,18.60
2013,07,01,01,07,18.60
2013,07,01,01,08,18.60
2013,07,01,01,09,18.60
2013,07,01,01,10,18.60
2013,07,01,01,11,18.50
2013,07,01,01,12,18.50
2013,07,01,01,13,18.50
2013,07,01,01,14,18.50
2013,07,01,01,15,18.50
2013,07,01,01,16,18.50
2013,07,01,01,17,18.50
2013,07,01,01,18,18.50
2013,07,01,01,19,18.50
2013,07,01,01,20,18.50
2013,07,01,01,21,18.40
2013,07,01,01,22,18.40
2013,07,01,01,23,18.40
2013,07,01,01,24,18.40
2013,07,01,01,25,18.40
2013,07,01,01,26,18.40
2013,07,01,01,27,18.40
2013,07,01,01,28,18.40
2013,07,01,01,29,18.40
2013,07,01,01,30,18.40
2013,07,01,01,31,18.40
2013,07,01,01,32,18.40
2013,07,01,01,33,18.40
2013,07,01,01,34,18.40
2013,07,01,01,35,18.40
2013,07,01,01,36,18.40
2013,07,01,01,37,18.40
2013,07,01,01,38,18.40
2013,07,01,01,39,18.40
2013,07,01,01,40,18.40
2013,07,01,01,41,18.40
2013,07,01,01,42,18.40
2013,07,01,01,43,18.30
2013,07,01,01,44,18.30
2013,07,01,01,45,18.30
2013,07,01,01,46,18.30
2013,07,01,01,47,18.30
2013,07,01,01,48,18.30
2013,07,01,01,49,18.30
2013,07,01,01,50,18.30
2013,07,01,01,51,18.30
2013,07,01,01,52,18.30
2013,07,01,01,53,18.30
2013,07,01,01,54,18.30
2013,07,01,01,55,18.30
2013,07,01,01,56,18.30
2013,07,01,01,57,18.30
2013,07,01,01,58,18.30
2013,07,01,01,59,18.30
2013,07,01,02,00,18.30
2013,07,01,02,01,18.30
2013,07,01,02,02,18.30
2013,07,01,02,03,18.30
2013,07,01,02,04,18.30
2013,07,01,02,05,18.30
2013,07,01,02,06,18.30
2013,07,01,02,07,18.30
2013,07,01,02,08,18.30
2013,07,01,02,09,18.30
2013,07,01,02,10,18.30
2013,07,01,02,11,18.40
2013,07,01,02,12,18.40
2013,07,01,02,13,18.40
2013,07,01,02,14,18.40
2013,07,01,02,15,18.40
2013,07,01,02,16,18.40
2013,07,01,02,17,18.40
2013,07,01,02,18,18.40
2013,07,01,02,19,18.40
2013,07,01,02,20,18.40
2013,07,01,02,21,18.40
2013,07,01,02,22,18.50
2013,07,01,02,23,18.50
2013,07,01,02,24,18.50
2013,07,01,02,25,18.50
2013,07,01,02,26,18.60
2013,07,01,02,27,18.60
2013,07,01,02,28,18.60
2013,07,01,02,29,18.60
2013,07,01,02,30,18.60
2013,07,01,02,31,18.60
2013,07,01,02,32,18.60
2013,07,01,02,33,18.60
2013,07,01,02,34,18.60
2013,07,01,02,35,18.60
2013,07,01,02,36,18.60
2013,07,01,02,37,18.60
2013,07,01,02,38,18.60
2013,07,01,02,39,18.60
2013,07,01,02,40,18.60
2013,07,01,02,41,18.60
2013,07,01,02,42,18.60
2013,07,01,02,43,18.60
2013,07,01,02,44,18.60
2013,07,01,02,45,18.70
2013,07,01,02,46,18.70
2013,07,01,02,47,18.80
2013,07,01,02,48,18.90
2013,07,01,02,49,19.00
2013,07,01,02,50,19.10
2013,07,01,02,51,19.30
2013,07,01,02,52,19.40
2013,07,01,02,53,19.50
2013,07,01,02,54,19.70
2013,07,01,02,55,19.80
2013,07,01,02,56,19.90
2013,07,01,02,57,19.90
2013,07,01,02,58,20.00
2013,07,01,02,59,20.10
2013,07,01,03,00,20.10
2013,07,01,03,01,20.20
2013,07,01,03,02,20.20
2013,07,01,03,03,20.20
2013,07,01,03,04,20.20
2013,07,01,03,05,20.20
2013,07,01,03,06,20.20
2013,07,01,03,07,20.20
2013,07,01,03,08,20.30
2013,07,01,03,09,20.30
2013,07,01,03,10,20.30
2013,07,01,03,11,20.30
2013,07,01,03,12,20.30
2013,07,01,03,13,20.30
2013,07,01,03,14,20.30
2013,07,01,03,15,20.30
2013,07,01,03,16,20.30
2013,07,01,03,17,20.30
2013,07,01,03,18,20.40
2013,07,01,03,19,20.40
2013,07,01,03,20,20.40
2013,07,01,03,21,20.40
2013,07,01,03,22,20.40
2013,07,01,03,23,20.40
2013,07,01,03,24,20.40
2013,07,01,03,25,20.40
2013,07,01,03,26,20.40
2013,07,01,03,27,20.40
2013,07,01,03,28,20.40
2013,07,01,03,29,20.40
2013,07,01,03,30,20.40
2013,07,01,03,31,20.40
2013,07,01,03,32,20.40
2013,07,01,03,33,20.30
2013,07,01,03,34,20.30
2013,07,01,03,35,20.30
2013,07,01,03,36,20.30
2013,07,01,03,37,20.20
2013,07,01,03,38,20.20
2013,07,01,03,39,20.20
2013,07,01,03,40,20.10
2013,07,01,03,41,20.10
2013,07,01,03,42,20.00
2013,07,01,03,43,20.00
2013,07,01,03,44,19.90
2013,07,01,03,45,19.90
2013,07,01,03,46,19.90
2013,07,01,03,47,19.80
2013,07,01,03,48,19.80
2013,07,01,03,49,19.80
2013,07,01,03,50,19.70
2013,07,01,03,51,19.70
2013,07,01,03,52,19.70
2013,07,01,03,53,19.60
2013,07,01,03,54,19.60
2013,07,01,03,55,19.60
2013,07,01,03,56,19.50
2013,07,01,03,57,19.50
2013,07,01,03,58,19.40
2013,07,01,03,59,19.40
2013,07,01,04,00,19.30
2013,07,01,04,01,19.30
2013,07,01,04,02,19.30
2013,07,01,04,03,19.20
2013,07,01,04,04,19.20
2013,07,01,04,05,19.10
2013,07,01,04,06,19.10
2013,07,01,04,07,19.10
2013,07,01,04,08,19.00
2013,07,01,04,09,18.90
2013,07,01,04,10,18.90
2013,07,01,04,11,18.90
2013,07,01,04,12,18.80
2013,07,01,04,13,18.80
2013,07,01,04,14,18.80
2013,07,01,04,15,18.80
2013,07,01,04,16,18.70
2013,07,01,04,17,18.70
2013,07,01,04,18,18.70
2013,07,01,04,19,18.70
2013,07,01,04,20,18.70
2013,07,01,04,21,18.60
2013,07,01,04,22,18.60
2013,07,01,04,23,18.60
2013,07,01,04,24,18.60
2013,07,01,04,25,18.50
2013,07,01,04,26,18.50
2013,07,01,04,27,18.50
2013,07,01,04,28,18.40
2013,07,01,04,29,18.40
2013,07,01,04,30,18.40
2013,07,01,04,31,18.40
2013,07,01,04,32,18.40
2013,07,01,04,33,18.40
2013,07,01,04,34,18.30
2013,07,01,04,35,18.30
2013,07,01,04,36,18.30
2013,07,01,04,37,18.30
2013,07,01,04,38,18.30
2013,07,01,04,39,18.30
2013,07,01,04,40,18.30
2013,07,01,04,41,18.30
2013,07,01,04,42,18.20
2013,07,01,04,43,18.20
2013,07,01,04,44,18.20
2013,07,01,04,45,18.20
2013,07,01,04,46,18.20
2013,07,01,04,47,18.20
2013,07,01,04,48,18.20
2013,07,01,04,49,18.20
2013,07,01,04,50,18.20
2013,07,01,04,51,18.20
2013,07,01,04,52,18.10
2013,07,01,04,53,18.10
2013,07,01,04,54,18.10
2013,07,01,04,55,18.10
2013,07,01,04,56,18.10
2013,07,01,04,57,18.10
2013,07,01,04,58,18.10
2013,07,01,04,59,18.10
2013,07,01,05,00,18.10
2013,07,01,05,01,18.00
2013,07,01,05,02,18.00
2013,07,01,05,03,18.00
2013,07,01,05,04,18.00
2013,07,01,05,05,18.00
2013,07,01,05,06,18.00
2013,07,01,05,07,18.00
2013,07,01,05,08,17.90
2013,07,01,05,09,17.90
2013,07,01,05,10,17.90
2013,07,01,05,11,17.90
2013,07,01,05,12,17.90
2013,07,01,05,13,17.90
2013,07,01,05,14,17.90
2013,07,01,05,15,17.80
2013,07,01,05,16,17.80
2013,07,01,05,17,17.80
2013,07,01,05,18,17.80
2013,07,01,05,19,17.80
2013,07,01,05,20,17.80
2013,07,01,05,21,17.80
2013,07,01,05,22,17.80
2013,07,01,05,23,17.70
2013,07,01,05,24,17.70
2013,07,01,05,25,17.70
2013,07,01,05,26,17.70
2013,07,01,05,27,17.70
2013,07,01,05,28,17.70
2013,07,01,05,29,17.70
2013,07,01,05,30,17.60
2013,07,01,05,31,17.60
2013,07,01,05,32,17.60
2013,07,01,05,33,17.60
2013,07,01,05,34,17.60
2013,07,01,05,35,17.60
2013,07,01,05,36,17.60
2013,07,01,05,37,17.60
2013,07,01,05,38,17.60
2013,07,01,05,39,17.60
2013,07,01,05,40,17.60
2013,07,01,05,41,17.60
2013,07,01,05,42,17.60
2013,07,01,05,43,17.60
2013,07,01,05,44,17.60
2013,07,01,05,45,17.60
2013,07,01,05,46,17.60
2013,07,01,05,47,17.60
2013,07,01,05,48,17.60
2013,07,01,05,49,17.60
2013,07,01,05,50,17.60
2013,07,01,05,51,17.70
2013,07,01,05,52,17.70
2013,07,01,05,53,17.70
2013,07,01,05,54,17.70
2013,07,01,05,55,17.70
2013,07,01,05,56,17.70
2013,07,01,05,57,17.70
2013,07,01,05,58,17.70
2013,07,01,05,59,17.70
2013,07,01,06,00,17.80
2013,07,01,06,01,17.80
2013,07,01,06,02,17.80
2013,07,01,06,03,17.80
2013,07,01,06,04,17.80
2013,07,01,06,05,17.90
2013,07,01,06,06,17.90
2013,07,01,06,07,17.90
2013,07,01,06,08,17.90
2013,07,01,06,09,18.00
2013,07,01,06,10,18.00
2013,07,01,06,11,18.00
2013,07,01,06,12,18.10
2013,07,01,06,13,18.10
2013,07,01,06,14,18.20
2013,07,01,06,15,18.20
2013,07,01,06,16,18.20
2013,07,01,06,17,18.20
2013,07,01,06,18,18.30
2013,07,01,06,19,18.30
2013,07,01,06,20,18.30
2013,07,01,06,21,18.40
2013,07,01,06,22,18.40
2013,07,01,06,23,18.50
2013,07,01,06,24,18.50
2013,07,01,06,25,18.60
2013,07,01,06,26,18.70
2013,07,01,06,27,18.70
2013,07,01,06,28,18.80
2013,07,01,06,29,18.90
2013,07,01,06,30,18.90
2013,07,01,06,31,19.00
2013,07,01,06,32,19.10
2013,07,01,06,33,19.20
2013,07,01,06,34,19.20
2013,07,01,06,35,19.30
2013,07,01,06,36,19.40
2013,07,01,06,37,19.50
2013,07,01,06,38,19.50
2013,07,01,06,39,19.60
2013,07,01,06,40,19.70
2013,07,01,06,41,19.80
2013,07,01,06,42,19.80
2013,07,01,06,43,19.90
2013,07,01,06,44,20.00
2013,07,01,06,45,20.10
2013,07,01,06,46,20.20
2013,07,01,06,47,20.30
2013,07,01,06,48,20.40
2013,07,01,06,49,20.50
2013,07,01,06,50,20.50
2013,07,01,06,51,20.60
2013,07,01,06,52,20.70
2013,07,01,06,53,20.80
2013,07,01,06,54,20.90
2013,07,01,06,55,20.90
2013,07,01,06,56,21.00
2013,07,01,06,57,21.10
2013,07,01,06,58,21.10
2013,07,01,06,59,21.20
2013,07,01,07,00,21.20
2013,07,01,07,01,21.30
2013,07,01,07,02,21.30
2013,07,01,07,03,21.40
2013,07,01,07,04,21.40
2013,07,01,07,05,21.50
2013,07,01,07,06,21.50
2013,07,01,07,07,21.60
2013,07,01,07,08,21.60
2013,07,01,07,09,21.70
2013,07,01,07,10,21.70
2013,07,01,07,11,21.80
2013,07,01,07,12,21.80
2013,07,01,07,13,21.80
2013,07,01,07,14,21.80
2013,07,01,07,15,21.90
2013,07,01,07,16,21.90
2013,07,01,07,17,21.90
2013,07,01,07,18,21.90
2013,07,01,07,19,21.90
2013,07,01,07,20,21.80
2013,07,01,07,21,21.80
2013,07,01,07,22,21.80
2013,07,01,07,23,21.70
2013,07,01,07,24,21.70
2013,07,01,07,25,21.70
2013,07,01,07,26,21.60
2013,07,01,07,27,21.70
2013,07,01,07,28,21.70
2013,07,01,07,29,21.70
2013,07,01,07,30,21.70
2013,07,01,07,31,21.80
2013,07,01,07,32,21.80
2013,07,01,07,33,21.80
2013,07,01,07,34,21.90
2013,07,01,07,35,21.90
2013,07,01,07,36,22.00
2013,07,01,07,37,22.00
2013,07,01,07,38,22.10
2013,07,01,07,39,22.10
2013,07,01,07,40,22.10
2013,07,01,07,41,22.20
2013,07,01,07,42,22.20
2013,07,01,07,43,22.30
2013,07,01,07,44,22.30
2013,07,01,07,45,22.30
2013,07,01,07,46,22.40
2013,07,01,07,47,22.40
2013,07,01,07,48,22.50
2013,07,01,07,49,22.50
2013,07,01,07,50,22.50
2013,07,01,07,51,22.50
2013,07,01,07,52,22.40
2013,07,01,07,53,22.40
2013,07,01,07,54,22.30
2013,07,01,07,55,22.20
2013,07,01,07,56,22.10
2013,07,01,07,57,22.00
2013,07,01,07,58,22.00
2013,07,01,07,59,21.90
2013,07,01,08,00,21.90
2013,07,01,08,01,21.80
2013,07,01,08,02,21.80
2013,07,01,08,03,21.80
2013,07,01,08,04,21.80
2013,07,01,08,05,21.80
2013,07,01,08,06,21.80
2013,07,01,08,07,21.80
2013,07,01,08,08,21.80
2013,07,01,08,09,21.80
2013,07,01,08,10,21.80
2013,07,01,08,11,21.80
2013,07,01,08,12,21.90
2013,07,01,08,13,21.90
2013,07,01,08,14,22.00
2013,07,01,08,15,22.00
2013,07,01,08,16,22.10
2013,07,01,08,17,22.20
2013,07,01,08,18,22.20
2013,07,01,08,19,22.20
2013,07,01,08,20,22.20
2013,07,01,08,21,22.20
2013,07,01,08,22,22.20
2013,07,01,08,23,22.20
2013,07,01,08,24,22.20
2013,07,01,08,25,22.20
2013,07,01,08,26,22.20
2013,07,01,08,27,22.30
2013,07,01,08,28,22.30
2013,07,01,08,29,22.30
2013,07,01,08,30,22.40
2013,07,01,08,31,22.40
2013,07,01,08,32,22.40
2013,07,01,08,33,22.40
2013,07,01,08,34,22.40
2013,07,01,08,35,22.40
2013,07,01,08,36,22.40
2013,07,01,08,37,22.40
2013,07,01,08,38,22.40
2013,07,01,08,39,22.40
2013,07,01,08,40,22.30
2013,07,01,08,41,22.30
2013,07,01,08,42,22.30
2013,07,01,08,43,22.30
2013,07,01,08,44,22.30
2013,07,01,08,45,22.30
2013,07,01,08,46,22.30
2013,07,01,08,47,22.30
2013,07,01,08,48,22.20
2013,07,01,08,49,22.20
2013,07,01,08,50,22.10
2013,07,01,08,51,22.10
2013,07,01,08,52,22.10
2013,07,01,08,53,22.10
2013,07,01,08,54,22.10
2013,07,01,08,55,22.10
2013,07,01,08,56,22.10
2013,07,01,08,57,22.10
2013,07,01,08,58,22.10
2013,07,01,08,59,22.10
2013,07,01,09,00,22.10
2013,07,01,09,01,22.10
2013,07,01,09,02,22.10
2013,07,01,09,03,22.10
2013,07,01,09,04,22.10
2013,07,01,09,05,22.10
2013,07,01,09,06,22.20
2013,07,01,09,07,22.20
2013,07,01,09,08,22.20
2013,07,01,09,09,22.20
2013,07,01,09,10,22.30
2013,07,01,09,11,22.30
2013,07,01,09,12,22.30
2013,07,01,09,13,22.30
2013,07,01,09,14,22.30
2013,07,01,09,15,22.30
2013,07,01,09,16,22.30
2013,07,01,09,17,22.30
2013,07,01,09,18,22.30
2013,07,01,09,19,22.30
2013,07,01,09,20,22.30
2013,07,01,09,21,22.30
2013,07,01,09,22,22.30
2013,07,01,09,23,22.30
2013,07,01,09,24,22.30
2013,07,01,09,25,22.40
2013,07,01,09,26,22.40
2013,07,01,09,27,22.40
2013,07,01,09,28,22.40
2013,07,01,09,29,22.40
2013,07,01,09,30,22.50
2013,07,01,09,31,22.50
2013,07,01,09,32,22.60
2013,07,01,09,33,22.60
2013,07,01,09,34,22.60
2013,07,01,09,35,22.60
2013,07,01,09,36,22.60
2013,07,01,09,37,22.50
2013,07,01,09,38,22.50
2013,07,01,09,39,22.50
2013,07,01,09,40,22.40
2013,07,01,09,41,22.40
2013,07,01,09,42,22.50
2013,07,01,09,43,22.50
2013,07,01,09,44,22.50
2013,07,01,09,45,22.40
2013,07,01,09,46,22.40
2013,07,01,09,47,22.30
2013,07,01,09,48,22.30
2013,07,01,09,49,22.20
2013,07,01,09,50,22.20
2013,07,01,09,51,22.20
2013,07,01,09,52,22.20
2013,07,01,09,53,22.20
2013,07,01,09,54,22.20
2013,07,01,09,55,22.10
2013,07,01,09,56,22.10
2013,07,01,09,57,22.10
2013,07,01,09,58,22.00
2013,07,01,09,59,22.00
2013,07,01,10,00,21.90
2013,07,01,10,01,21.90
2013,07,01,10,02,21.90
2013,07,01,10,03,21.90
2013,07,01,10,04,21.90
2013,07,01,10,05,22.00
2013,07,01,10,06,22.00
2013,07,01,10,07,22.10
2013,07,01,10,08,22.20
2013,07,01,10,09,22.20
2013,07,01,10,10,22.30
2013,07,01,10,11,22.40
2013,07,01,10,12,22.40
2013,07,01,10,13,22.50
2013,07,01,10,14,22.60
2013,07,01,10,15,22.70
2013,07,01,10,16,22.80
2013,07,01,10,17,22.80
2013,07,01,10,18,22.90
2013,07,01,10,19,22.80
2013,07,01,10,20,22.80
2013,07,01,10,21,22.80
2013,07,01,10,22,22.80
2013,07,01,10,23,22.70
2013,07,01,10,24,22.60
2013,07,01,10,25,22.50
2013,07,01,10,26,22.40
2013,07,01,10,27,22.40
2013,07,01,10,28,22.30
2013,07,01,10,29,22.30
2013,07,01,10,30,22.20
2013,07,01,10,31,22.20
2013,07,01,10,32,22.20
2013,07,01,10,33,22.20
2013,07,01,10,34,22.20
2013,07,01,10,35,22.20
2013,07,01,10,36,22.20
2013,07,01,10,37,22.30
2013,07,01,10,38,22.20
2013,07,01,10,39,22.20
2013,07,01,10,40,22.20
2013,07,01,10,41,22.20
2013,07,01,10,42,22.20
2013,07,01,10,43,22.20
2013,07,01,10,44,22.20
2013,07,01,10,45,22.30
2013,07,01,10,46,22.30
2013,07,01,10,47,22.20
2013,07,01,10,48,22.10
2013,07,01,10,49,22.10
2013,07,01,10,50,22.10
2013,07,01,10,51,22.10
2013,07,01,10,52,22.10
2013,07,01,10,53,22.20
2013,07,01,10,54,22.20
2013,07,01,10,55,22.20
2013,07,01,10,56,22.20
2013,07,01,10,57,22.20
2013,07,01,10,58,22.30
2013,07,01,10,59,22.30
2013,07,01,11,00,22.30
2013,07,01,11,01,22.30
2013,07,01,11,02,22.30
2013,07,01,11,03,22.30
2013,07,01,11,04,22.30
2013,07,01,11,05,22.30
2013,07,01,11,06,22.30
2013,07,01,11,07,22.20
2013,07,01,11,08,22.20
2013,07,01,11,09,22.20
2013,07,01,11,10,22.20
2013,07,01,11,11,22.20
2013,07,01,11,12,22.30
2013,07,01,11,13,22.30
2013,07,01,11,14,22.50
2013,07,01,11,15,22.50
2013,07,01,11,16,22.60
2013,07,01,11,17,22.70
2013,07,01,11,18,22.80
2013,07,01,11,19,22.80
2013,07,01,11,20,22.80
2013,07,01,11,21,22.80
2013,07,01,11,22,22.80
2013,07,01,11,23,22.80
2013,07,01,11,24,22.80
2013,07,01,11,25,22.80
2013,07,01,11,26,22.80
2013,07,01,11,27,22.80
2013,07,01,11,28,22.80
2013,07,01,11,29,22.90
2013,07,01,11,30,22.90
2013,07,01,11,31,22.80
2013,07,01,11,32,22.80
2013,07,01,11,33,22.90
2013,07,01,11,34,22.90
2013,07,01,11,35,22.80
2013,07,01,11,36,22.80
2013,07,01,11,37,22.80
2013,07,01,11,38,22.80
2013,07,01,11,39,22.80
2013,07,01,11,40,22.80
2013,07,01,11,41,22.90
2013,07,01,11,42,22.90
2013,07,01,11,43,22.90
2013,07,01,11,44,22.90
2013,07,01,11,45,22.80
2013,07,01,11,46,22.80
2013,07,01,11,47,22.80
2013,07,01,11,48,22.90
2013,07,01,11,49,22.90
2013,07,01,11,50,23.00
2013,07,01,11,51,23.20
2013,07,01,11,52,23.20
2013,07,01,11,53,23.30
2013,07,01,11,54,23.30
2013,07,01,11,55,23.40
2013,07,01,11,56,23.40
2013,07,01,11,57,23.40
2013,07,01,11,58,23.40
2013,07,01,11,59,23.40
2013,07,01,12,00,23.40
2013,07,01,12,01,23.40
2013,07,01,12,02,23.40
2013,07,01,12,03,23.40
2013,07,01,12,04,23.50
2013,07,01,12,05,23.50
2013,07,01,12,06,23.50
2013,07,01,12,07,23.60
2013,07,01,12,08,23.60
2013,07,01,12,09,23.60
2013,07,01,12,10,23.60
2013,07,01,12,11,23.50
2013,07,01,12,12,23.50
2013,07,01,12,13,23.50
2013,07,01,12,14,23.40
2013,07,01,12,15,23.40
2013,07,01,12,16,23.40
2013,07,01,12,17,23.40
2013,07,01,12,18,23.40
2013,07,01,12,19,23.40
2013,07,01,12,20,23.40
2013,07,01,12,21,23.40
2013,07,01,12,22,23.40
2013,07,01,12,23,23.40
2013,07,01,12,24,23.40
2013,07,01,12,25,23.40
2013,07,01,12,26,23.40
2013,07,01,12,27,23.40
2013,07,01,12,28,23.40
2013,07,01,12,29,23.50
2013,07,01,12,30,23.50
2013,07,01,12,31,23.60
2013,07,01,12,32,23.70
2013,07,01,12,33,23.70
2013,07,01,12,34,23.70
2013,07,01,12,35,23.80
2013,07,01,12,36,23.80
2013,07,01,12,37,23.80
2013,07,01,12,38,23.90
2013,07,01,12,39,23.90
2013,07,01,12,40,23.90
2013,07,01,12,41,23.90
2013,07,01,12,42,23.90
2013,07,01,12,43,23.90
2013,07,01,12,44,23.90
2013,07,01,12,45,23.90
2013,07,01,12,46,23.90
2013,07,01,12,47,24.00
2013,07,01,12,48,24.00
2013,07,01,12,49,24.10
2013,07,01,12,50,24.10
2013,07,01,12,51,24.20
2013,07,01,12,52,24.20
2013,07,01,12,53,24.20
2013,07,01,12,54,24.20
2013,07,01,12,55,24.10
2013,07,01,12,56,24.10
2013,07,01,12,57,24.20
2013,07,01,12,58,24.20
2013,07,01,12,59,24.30
2013,07,01,13,00,24.40
2013,07,01,13,01,24.40
2013,07,01,13,02,24.50
2013,07,01,13,03,24.50
2013,07,01,13,04,24.50
2013,07,01,13,05,24.60
2013,07,01,13,06,24.60
2013,07,01,13,07,24.60
2013,07,01,13,08,24.60
2013,07,01,13,09,24.60
2013,07,01,13,10,24.50
2013,07,01,13,11,24.50
2013,07,01,13,12,24.40
2013,07,01,13,13,24.40
2013,07,01,13,14,24.40
2013,07,01,13,15,24.30
2013,07,01,13,16,24.30
2013,07,01,13,17,24.30
2013,07,01,13,18,24.30
2013,07,01,13,19,24.30
2013,07,01,13,20,24.30
2013,07,01,13,21,24.40
2013,07,01,13,22,24.40
2013,07,01,13,23,24.50
2013,07,01,13,24,24.60
2013,07,01,13,25,24.60
2013,07,01,13,26,24.60
2013,07,01,13,27,24.70
2013,07,01,13,28,24.80
2013,07,01,13,29,24.80
2013,07,01,13,30,24.90
2013,07,01,13,31,24.90
2013,07,01,13,32,25.00
2013,07,01,13,33,25.10
2013,07,01,13,34,25.10
2013,07,01,13,35,25.20
2013,07,01,13,36,25.30
2013,07,01,13,37,25.30
2013,07,01,13,38,25.30
2013,07,01,13,39,25.30
2013,07,01,13,40,25.30
2013,07,01,13,41,25.30
2013,07,01,13,42,25.30
2013,07,01,13,43,25.30
2013,07,01,13,44,25.30
2013,07,01,13,45,25.40
2013,07,01,13,46,25.50
2013,07,01,13,47,25.60
2013,07,01,13,48,25.70
2013,07,01,13,49,25.90
2013,07,01,13,50,25.90
2013,07,01,13,51,26.00
2013,07,01,13,52,26.10
2013,07,01,13,53,26.10
2013,07,01,13,54,26.20
2013,07,01,13,55,26.20
2013,07,01,13,56,26.10
2013,07,01,13,57,26.00
2013,07,01,13,58,25.90
2013,07,01,13,59,25.80
2013,07,01,14,00,25.70
2013,07,01,14,01,25.60
2013,07,01,14,02,25.50
2013,07,01,14,03,25.50
2013,07,01,14,04,25.40
2013,07,01,14,05,25.40
2013,07,01,14,06,25.40
2013,07,01,14,07,25.40
2013,07,01,14,08,25.40
2013,07,01,14,09,25.40
2013,07,01,14,10,25.40
2013,07,01,14,11,25.40
2013,07,01,14,12,25.40
2013,07,01,14,13,25.30
2013,07,01,14,14,25.30
2013,07,01,14,15,25.30
2013,07,01,14,16,25.30
2013,07,01,14,17,25.30
2013,07,01,14,18,25.30
2013,07,01,14,19,25.30
2013,07,01,14,20,25.30
2013,07,01,14,21,25.30
2013,07,01,14,22,25.30
2013,07,01,14,23,25.30
2013,07,01,14,24,25.30
2013,07,01,14,25,25.30
2013,07,01,14,26,25.40
2013,07,01,14,27,25.40
2013,07,01,14,28,25.40
2013,07,01,14,29,25.50
2013,07,01,14,30,25.50
2013,07,01,14,31,25.60
2013,07,01,14,32,25.70
2013,07,01,14,33,25.70
2013,07,01,14,34,25.70
2013,07,01,14,35,25.70
2013,07,01,14,36,25.70
2013,07,01,14,37,25.70
2013,07,01,14,38,25.60
2013,07,01,14,39,25.70
2013,07,01,14,40,25.60
2013,07,01,14,41,25.60
2013,07,01,14,42,25.60
2013,07,01,14,43,25.50
2013,07,01,14,44,25.50
2013,07,01,14,45,25.40
2013,07,01,14,46,25.40
2013,07,01,14,47,25.40
2013,07,01,14,48,25.40
2013,07,01,14,49,25.40
2013,07,01,14,50,25.40
2013,07,01,14,51,25.50
2013,07,01,14,52,25.60
2013,07,01,14,53,25.60
2013,07,01,14,54,25.60
2013,07,01,14,55,25.60
2013,07,01,14,56,25.60
2013,07,01,14,57,25.60
2013,07,01,14,58,25.60
2013,07,01,14,59,25.60
2013,07,01,15,00,25.60
2013,07,01,15,01,25.60
2013,07,01,15,02,25.60
2013,07,01,15,03,25.60
2013,07,01,15,04,25.60
2013,07,01,15,05,25.60
2013,07,01,15,06,25.70
2013,07,01,15,07,25.70
2013,07,01,15,08,25.80
2013,07,01,15,09,25.80
2013,07,01,15,10,25.80
2013,07,01,15,11,25.80
2013,07,01,15,12,25.80
2013,07,01,15,13,25.90
2013,07,01,15,14,25.90
2013,07,01,15,15,25.90
2013,07,01,15,16,26.00
2013,07,01,15,17,26.10
2013,07,01,15,18,26.20
2013,07,01,15,19,26.30
2013,07,01,15,20,26.30
2013,07,01,15,21,26.30
2013,07,01,15,22,26.30
2013,07,01,15,23,26.40
2013,07,01,15,24,26.40
2013,07,01,15,25,26.50
2013,07,01,15,26,26.60
2013,07,01,15,27,26.70
2013,07,01,15,28,26.70
2013,07,01,15,29,26.70
2013,07,01,15,30,26.70
2013,07,01,15,31,26.70
2013,07,01,15,32,26.70
2013,07,01,15,33,26.70
2013,07,01,15,34,26.70
2013,07,01,15,35,26.70
2013,07,01,15,36,26.80
2013,07,01,15,37,26.80
2013,07,01,15,38,26.90
2013,07,01,15,39,27.00
2013,07,01,15,40,27.00
2013,07,01,15,41,27.10
2013,07,01,15,42,27.10
2013,07,01,15,43,27.20
2013,07,01,15,44,27.30
2013,07,01,15,45,27.30
2013,07,01,15,46,27.30
2013,07,01,15,47,27.40
2013,07,01,15,48,27.40
2013,07,01,15,49,27.40
2013,07,01,15,50,27.50
2013,07,01,15,51,27.50
2013,07,01,15,52,27.60
2013,07,01,15,53,27.60
2013,07,01,15,54,27.70
2013,07,01,15,55,27.80
2013,07,01,15,56,27.80
2013,07,01,15,57,27.80
2013,07,01,15,58,27.80
2013,07,01,15,59,27.80
2013,07,01,16,00,27.80
2013,07,01,16,01,27.70
2013,07,01,16,02,27.70
2013,07,01,16,03,27.60
2013,07,01,16,04,27.50
2013,07,01,16,05,27.40
2013,07,01,16,06,27.30
2013,07,01,16,07,27.40
2013,07,01,16,08,27.40
2013,07,01,16,09,27.30
2013,07,01,16,10,27.40
2013,07,01,16,11,27.40
2013,07,01,16,12,27.40
2013,07,01,16,13,27.40
2013,07,01,16,14,27.40
2013,07,01,16,15,27.40
2013,07,01,16,16,27.40
2013,07,01,16,17,27.40
2013,07,01,16,18,27.30
2013,07,01,16,19,27.30
2013,07,01,16,20,27.30
2013,07,01,16,21,27.30
2013,07,01,16,22,27.30
2013,07,01,16,23,27.30
2013,07,01,16,24,27.30
2013,07,01,16,25,27.30
2013,07,01,16,26,27.30
2013,07,01,16,27,27.30
2013,07,01,16,28,27.40
2013,07,01,16,29,27.40
2013,07,01,16,30,27.40
2013,07,01,16,31,27.40
2013,07,01,16,32,27.40
2013,07,01,16,33,27.40
2013,07,01,16,34,27.40
2013,07,01,16,35,27.40
2013,07,01,16,36,27.40
2013,07,01,16,37,27.40
2013,07,01,16,38,27.40
2013,07,01,16,39,27.40
2013,07,01,16,40,27.40
2013,07,01,16,41,27.50
2013,07,01,16,42,27.50
2013,07,01,16,43,27.50
2013,07,01,16,44,27.50
2013,07,01,16,45,27.50
2013,07,01,16,46,27.50
2013,07,01,16,47,27.50
2013,07,01,16,48,27.50
2013,07,01,16,49,27.50
2013,07,01,16,50,27.60
2013,07,01,16,51,27.60
2013,07,01,16,52,27.60
2013,07,01,16,53,27.60
2013,07,01,16,54,27.60
2013,07,01,16,55,27.60
2013,07,01,16,56,27.60
2013,07,01,16,57,27.60
2013,07,01,16,58,27.60
2013,07,01,16,59,27.60
2013,07,01,17,00,27.60
2013,07,01,17,01,27.60
2013,07,01,17,02,27.50
2013,07,01,17,03,27.50
2013,07,01,17,04,27.50
2013,07,01,17,05,27.40
2013,07,01,17,06,27.40
2013,07,01,17,07,27.40
2013,07,01,17,08,27.30
2013,07,01,17,09,27.40
2013,07,01,17,10,27.40
2013,07,01,17,11,27.40
2013,07,01,17,12,27.50
2013,07,01,17,13,27.50
2013,07,01,17,14,27.50
2013,07,01,17,15,27.60
2013,07,01,17,16,27.60
2013,07,01,17,17,27.60
2013,07,01,17,18,27.50
2013,07,01,17,19,27.50